| time (UTC) | temp F | wind direction | speed knots | gust knots | rain 1hr in | rain 24hr in | rain mn in | humidity % | barometer mb |
| 20260507022856 | 63 | 66 | 2.6 | 4.3 | 0.00 | 0.00 | 0.00 | 83 | 1015.7 |
| 20260507022353 | 63 | 13 | 3.5 | 7.0 | 0.00 | 0.00 | 0.00 | 83 | 1015.8 |
| 20260507021849 | 63 | 49 | 1.7 | 2.6 | 0.00 | 0.00 | 0.00 | 83 | 1015.9 |
| 20260507021344 | 63 | 52 | 0.0 | 0.9 | 0.00 | 0.00 | 0.00 | 83 | 1015.7 |
| 20260507020843 | 63 | 65 | 0.9 | 2.6 | 0.00 | 0.00 | 0.00 | 83 | 1015.8 |
| 20260507020339 | 64 | 126 | 2.6 | 5.2 | 0.00 | 0.00 | 0.00 | 82 | 1015.5 |
| 20260507015836 | 64 | 16 | 0.9 | 0.9 | 0.00 | 0.00 | 0.00 | 82 | 1015.1 |
| 20260507015334 | 64 | 19 | 3.5 | 4.3 | 0.00 | 0.00 | 0.00 | 82 | 1014.5 |
| 20260507014831 | 64 | 13 | 2.6 | 2.6 | 0.00 | 0.00 | 0.00 | 82 | 1015.0 |
| 20260507014327 | 64 | 358 | 2.6 | 4.3 | 0.00 | 0.00 | 0.00 | 82 | 1014.9 |
| 20260507013823 | 64 | 27 | 0.9 | 1.7 | 0.00 | 0.00 | 0.00 | 82 | 1015.1 |
| 20260507013321 | 64 | 20 | 4.3 | 7.0 | 0.00 | 0.00 | 0.00 | 82 | 1015.1 |
| 20260507012818 | 64 | 7 | 2.6 | 2.6 | 0.00 | 0.00 | 0.00 | 82 | 1015.1 |
| 20260507012314 | 64 | 38 | 2.6 | 4.3 | 0.00 | 0.00 | 0.00 | 81 | 1014.7 |
| 20260507011811 | 64 | 23 | 0.9 | 1.7 | 0.00 | 0.00 | 0.00 | 81 | 1015.0 |
| 20260507011308 | 64 | 29 | 2.6 | 4.3 | 0.00 | 0.00 | 0.00 | 81 | 1014.8 |
| 20260507010808 | 64 | 54 | 2.6 | 4.3 | 0.00 | 0.00 | 0.00 | 81 | 1014.7 |
| 20260507010304 | 65 | 277 | 2.6 | 4.3 | 0.00 | 0.00 | 0.00 | 81 | 1014.5 |
| 20260507005801 | 65 | 29 | 2.6 | 2.6 | 0.00 | 0.00 | 0.00 | 80 | 1014.5 |
| 20260507005257 | 65 | 18 | 3.5 | 6.1 | 0.00 | 0.00 | 0.00 | 81 | 1014.4 |
| 20260507004754 | 65 | 96 | 1.7 | 4.3 | 0.00 | 0.00 | 0.00 | 80 | 1014.2 |
| 20260507004252 | 66 | 43 | 3.5 | 4.3 | 0.00 | 0.00 | 0.00 | 80 | 1014.1 |
| 20260507003748 | 66 | 80 | 1.7 | 2.6 | 0.00 | 0.00 | 0.00 | 80 | 1014.1 |
| 20260507003244 | 66 | 331 | 2.6 | 2.6 | 0.00 | 0.00 | 0.00 | 79 | 1014.6 |
| 20260507002740 | 66 | 74 | 4.3 | 6.1 | 0.00 | 0.00 | 0.00 | 78 | 1014.2 |
| 20260507002236 | 67 | 68 | 2.6 | 2.6 | 0.00 | 0.00 | 0.00 | 78 | 1013.8 |
| 20260507001733 | 67 | 34 | 0.9 | 1.7 | 0.00 | 0.00 | 0.00 | 77 | 1013.9 |
| 20260507001230 | 67 | 40 | 4.3 | 7.0 | 0.00 | 0.00 | 0.00 | 78 | 1014.0 |
| 20260507000726 | 68 | 45 | 3.5 | 5.2 | 0.00 | 0.00 | 0.00 | 77 | 1014.2 |
| 20260507000222 | 68 | 7 | 0.9 | 1.7 | 0.00 | 0.00 | 0.00 | 77 | 1013.7 |
| 20260506235719 | 68 | 41 | 1.7 | 1.7 | 0.00 | 0.00 | 0.00 | 77 | 1013.7 |
| 20260506235214 | 68 | 356 | 1.7 | 2.6 | 0.00 | 0.00 | 0.00 | 77 | 1013.8 |
| 20260506234711 | 68 | 303 | 4.3 | 7.0 | 0.00 | 0.00 | 0.00 | 76 | 1014.0 |
| 20260506234209 | 68 | 8 | 1.7 | 1.7 | 0.00 | 0.00 | 0.00 | 77 | 1013.6 |
| 20260506233706 | 68 | 133 | 4.3 | 6.1 | 0.00 | 0.00 | 0.00 | 76 | 1013.6 |
| 20260506233203 | 69 | 34 | 4.3 | 5.2 | 0.00 | 0.00 | 0.00 | 75 | 1013.3 |
| 20260506232659 | 69 | 49 | 6.1 | 9.6 | 0.00 | 0.00 | 0.00 | 74 | 1013.3 |
| 20260506232154 | 70 | 310 | 1.7 | 2.6 | 0.00 | 0.00 | 0.00 | 74 | 1013.4 |
| 20260506231652 | 71 | 11 | 6.1 | 9.6 | 0.00 | 0.00 | 0.00 | 73 | 1013.5 |
| 20260506231150 | 71 | 113 | 2.6 | 4.3 | 0.00 | 0.00 | 0.00 | 73 | 1013.5 |
| 20260506230647 | 73 | 345 | 4.3 | 8.7 | 0.00 | 0.00 | 0.00 | 71 | 1013.3 |
| 20260506230143 | 73 | 232 | 1.7 | 4.3 | 0.00 | 0.00 | 0.00 | 71 | 1013.2 |
| 20260506225640 | 74 | 18 | 2.6 | 4.3 | 0.00 | 0.00 | 0.00 | 71 | 1013.2 |
| 20260506225137 | 74 | 355 | 2.6 | 4.3 | 0.00 | 0.00 | 0.00 | 71 | 1012.9 |
| 20260506224633 | 74 | 60 | 1.7 | 2.6 | 0.00 | 0.00 | 0.00 | 72 | 1013.0 |
| 20260506224130 | 75 | 96 | 1.7 | 2.6 | 0.00 | 0.00 | 0.00 | 71 | 1012.9 |
| 20260506223626 | 76 | 356 | 6.1 | 8.7 | 0.00 | 0.00 | 0.00 | 70 | 1013.0 |
| 20260506223122 | 76 | 17 | 2.6 | 2.6 | 0.00 | 0.00 | 0.00 | 69 | 1013.0 |
| 20260506222619 | 78 | 22 | 2.6 | 5.2 | 0.00 | 0.00 | 0.00 | 69 | 1012.9 |
| 20260506222116 | 78 | 48 | 2.6 | 5.2 | 0.00 | 0.00 | 0.00 | 68 | 1012.8 |
| 20260506221613 | 79 | 24 | 4.3 | 7.0 | 0.00 | 0.00 | 0.00 | 66 | 1012.7 |
| 20260506221111 | 78 | 48 | 2.6 | 2.6 | 0.00 | 0.00 | 0.00 | 68 | 1012.7 |
| 20260506220607 | 78 | 41 | 1.7 | 1.7 | 0.00 | 0.00 | 0.00 | 69 | 1012.6 |
| 20260506215559 | 77 | 14 | 2.6 | 4.3 | 0.00 | 0.00 | 0.00 | 69 | 1012.8 |
| 20260506215055 | 77 | 304 | 2.6 | 5.2 | 0.00 | 0.00 | 0.00 | 69 | 1012.7 |
| 20260506214552 | 79 | 358 | 1.7 | 2.6 | 0.00 | 0.00 | 0.00 | 68 | 1012.8 |
| 20260506214050 | 79 | 338 | 3.5 | 5.2 | 0.00 | 0.00 | 0.00 | 68 | 1012.6 |
| 20260506213548 | 79 | 346 | 5.2 | 7.8 | 0.00 | 0.00 | 0.00 | 68 | 1012.5 |
| 20260506213045 | 79 | 50 | 0.9 | 1.7 | 0.00 | 0.00 | 0.00 | 69 | 1012.5 |
| 20260506212541 | 80 | 62 | 1.7 | 2.6 | 0.00 | 0.00 | 0.00 | 69 | 1012.9 |
| 20260506212036 | 80 | 46 | 3.5 | 5.2 | 0.00 | 0.00 | 0.00 | 68 | 1012.6 |
| 20260506211532 | 80 | 9 | 3.5 | 5.2 | 0.00 | 0.00 | 0.00 | 69 | 1012.4 |
| 20260506211030 | 81 | 352 | 4.3 | 5.2 | 0.00 | 0.00 | 0.00 | 69 | 1012.7 |
| 20260506210526 | 79 | 317 | 4.3 | 6.1 | 0.00 | 0.00 | 0.00 | 72 | 1012.4 |
| 20260506210023 | 79 | 14 | 4.3 | 5.2 | 0.00 | 0.00 | 0.00 | 72 | 1012.5 |
| 20260506205520 | 79 | 14 | 2.6 | 4.3 | 0.00 | 0.00 | 0.00 | 71 | 1012.5 |
| 20260506205015 | 79 | 112 | 0.9 | 0.9 | 0.00 | 0.00 | 0.00 | 72 | 1012.6 |
| 20260506204513 | 80 | 1 | 2.6 | 4.3 | 0.00 | 0.00 | 0.00 | 71 | 1012.5 |
| 20260506204010 | 84 | 99 | 4.3 | 8.7 | 0.00 | 0.00 | 0.00 | 66 | 1012.4 |
| 20260506203508 | 84 | 52 | 2.6 | 2.6 | 0.00 | 0.00 | 0.00 | 68 | 1012.5 |
| 20260506203004 | 85 | 39 | 1.7 | 1.7 | 0.00 | 0.00 | 0.00 | 66 | 1012.5 |
| 20260506202502 | 85 | 48 | 1.7 | 1.7 | 0.00 | 0.00 | 0.00 | 67 | 1012.4 |
| 20260506201957 | 84 | 61 | 0.0 | 0.0 | 0.00 | 0.00 | 0.00 | 70 | 1012.5 |
| 20260506201456 | 84 | 124 | 1.7 | 1.7 | 0.00 | 0.00 | 0.00 | 68 | 1012.6 |
| 20260506200952 | 83 | 66 | 0.9 | 1.7 | 0.00 | 0.00 | 0.00 | 69 | 1012.6 |
| 20260506200449 | 83 | 90 | 1.7 | 1.7 | 0.00 | 0.00 | 0.00 | 69 | 1012.7 |
| 20260506195945 | 84 | 46 | 0.0 | 0.0 | 0.00 | 0.00 | 0.00 | 69 | 1012.6 |
| 20260506195442 | 84 | 79 | 1.7 | 2.6 | 0.00 | 0.00 | 0.00 | 68 | 1012.9 |
| 20260506194938 | 85 | 16 | 2.6 | 2.6 | 0.00 | 0.00 | 0.00 | 67 | 1012.7 |
| 20260506194436 | 84 | 2 | 1.7 | 1.7 | 0.00 | 0.00 | 0.00 | 70 | 1012.5 |
| 20260506193932 | 84 | 89 | 1.7 | 1.7 | 0.00 | 0.00 | 0.00 | 69 | 1012.5 |
| 20260506193430 | 84 | 30 | 0.9 | 0.9 | 0.00 | 0.00 | 0.00 | 69 | 1012.6 |
| 20260506192926 | 83 | 28 | 0.0 | 0.0 | 0.00 | 0.00 | 0.00 | 73 | 1012.6 |
| 20260506192423 | 83 | 189 | 0.9 | 1.7 | 0.00 | 0.00 | 0.00 | 71 | 1012.9 |
| 20260506191920 | 83 | 92 | 0.9 | 1.7 | 0.00 | 0.00 | 0.00 | 71 | 1012.8 |
| 20260506191416 | 84 | 63 | 0.9 | 0.9 | 0.00 | 0.00 | 0.00 | 70 | 1012.9 |
| 20260506190914 | 84 | 41 | 0.9 | 0.9 | 0.00 | 0.00 | 0.00 | 68 | 1012.8 |
| 20260506190410 | 85 | 63 | 0.0 | 0.0 | 0.00 | 0.00 | 0.00 | 67 | 1013.1 |
| 20260506185907 | 84 | 253 | 2.6 | 2.6 | 0.00 | 0.00 | 0.00 | 67 | 1013.0 |
| 20260506185404 | 85 | 273 | 0.9 | 0.9 | 0.00 | 0.00 | 0.00 | 68 | 1013.0 |
| 20260506184901 | 85 | 349 | 0.9 | 0.9 | 0.00 | 0.00 | 0.00 | 66 | 1013.1 |
| 20260506184358 | 84 | 107 | 0.0 | 0.9 | 0.00 | 0.00 | 0.00 | 69 | 1013.2 |
| 20260506183855 | 84 | 103 | 2.6 | 2.6 | 0.00 | 0.00 | 0.00 | 67 | 1013.3 |
| 20260506183350 | 83 | 120 | 1.7 | 1.7 | 0.00 | 0.00 | 0.00 | 69 | 1013.4 |
| 20260506182848 | 82 | 30 | 0.9 | 0.9 | 0.00 | 0.00 | 0.00 | 72 | 1013.2 |
| 20260506182345 | 82 | 71 | 0.9 | 1.7 | 0.00 | 0.00 | 0.00 | 72 | 1013.3 |
| 20260506181842 | 82 | 163 | 0.9 | 1.7 | 0.00 | 0.00 | 0.00 | 74 | 1013.5 |
| 20260506181340 | 82 | 63 | 1.7 | 1.7 | 0.00 | 0.00 | 0.00 | 74 | 1013.5 |
| 20260506180837 | 82 | 121 | 0.9 | 0.9 | 0.00 | 0.00 | 0.00 | 75 | 1013.5 |
| 20260506180333 | 81 | 89 | 0.9 | 1.7 | 0.00 | 0.00 | 0.00 | 76 | 1013.4 |
| 20260506175830 | 80 | 172 | 1.7 | 1.7 | 0.00 | 0.00 | 0.00 | 77 | 1013.3 |
| 20260506175327 | 79 | 178 | 0.9 | 1.7 | 0.00 | 0.00 | 0.00 | 80 | 1013.7 |
| 20260506174824 | 79 | 113 | 2.6 | 4.3 | 0.00 | 0.00 | 0.00 | 81 | 1013.5 |
| 20260506174321 | 79 | 102 | 0.9 | 1.7 | 0.00 | 0.00 | 0.00 | 81 | 1013.9 |
| 20260506173818 | 78 | 74 | 0.9 | 0.9 | 0.00 | 0.00 | 0.00 | 81 | 1013.7 |
| 20260506173315 | 79 | 87 | 0.0 | 0.9 | 0.00 | 0.00 | 0.00 | 82 | 1013.7 |
| 20260506172812 | 78 | 65 | 0.9 | 1.7 | 0.00 | 0.00 | 0.00 | 83 | 1013.9 |
| 20260506172308 | 78 | 59 | 1.7 | 1.7 | 0.00 | 0.00 | 0.00 | 82 | 1013.8 |
| 20260506171806 | 78 | 35 | 0.0 | 0.9 | 0.00 | 0.00 | 0.00 | 83 | 1013.9 |
| 20260506171303 | 78 | 58 | 0.9 | 1.7 | 0.00 | 0.00 | 0.00 | 83 | 1013.7 |
| 20260506170801 | 78 | 71 | 0.9 | 0.9 | 0.00 | 0.00 | 0.00 | 84 | 1014.1 |
| 20260506170257 | 78 | 103 | 0.9 | 0.9 | 0.00 | 0.00 | 0.00 | 84 | 1014.1 |
| 20260506165755 | 77 | 53 | 0.9 | 1.7 | 0.00 | 0.00 | 0.00 | 84 | 1014.1 |
| 20260506165252 | 77 | 71 | 0.9 | 0.9 | 0.00 | 0.00 | 0.00 | 84 | 1013.9 |
| 20260506164749 | 77 | 61 | 1.7 | 2.6 | 0.00 | 0.00 | 0.00 | 84 | 1013.9 |
| 20260506164246 | 78 | 83 | 0.0 | 0.9 | 0.00 | 0.00 | 0.00 | 83 | 1014.0 |
| 20260506163743 | 78 | 52 | 2.6 | 2.6 | 0.00 | 0.00 | 0.00 | 84 | 1013.8 |
| 20260506163237 | 78 | 53 | 0.9 | 0.9 | 0.00 | 0.00 | 0.00 | 84 | 1013.9 |
| 20260506162734 | 77 | 90 | 0.9 | 0.9 | 0.00 | 0.00 | 0.00 | 84 | 1013.9 |
| 20260506162232 | 77 | 82 | 0.0 | 0.9 | 0.00 | 0.00 | 0.00 | 86 | 1013.9 |
| 20260506161729 | 77 | 73 | 2.6 | 2.6 | 0.00 | 0.00 | 0.00 | 85 | 1013.8 |
| 20260506161226 | 77 | 101 | 1.7 | 2.6 | 0.00 | 0.00 | 0.00 | 85 | 1013.8 |
| 20260506160724 | 77 | 112 | 1.7 | 2.6 | 0.00 | 0.00 | 0.00 | 86 | 1013.9 |
| 20260506160220 | 77 | 86 | 1.7 | 1.7 | 0.00 | 0.00 | 0.00 | 87 | 1013.8 |
| 20260506155719 | 77 | 11 | 0.9 | 1.7 | 0.00 | 0.00 | 0.00 | 85 | 1013.9 |
| 20260506155215 | 77 | 32 | 0.9 | 1.7 | 0.00 | 0.00 | 0.00 | 86 | 1013.8 |
| 20260506153317 | 75 | 60 | 1.7 | 1.7 | 0.00 | 0.00 | 0.00 | 91 | 1013.4 |
| 20260506152814 | 75 | 113 | 0.0 | 0.0 | 0.00 | 0.00 | 0.00 | 92 | 1013.4 |
| 20260506152311 | 75 | 74 | 0.9 | 0.9 | 0.00 | 0.00 | 0.00 | 93 | 1013.5 |
| 20260506151810 | 75 | 65 | 0.0 | 0.0 | 0.00 | 0.00 | 0.00 | 93 | 1013.2 |
| 20260506151306 | 75 | 94 | 0.0 | 0.9 | 0.00 | 0.00 | 0.00 | 93 | 1013.1 |
| 20260506150803 | 74 | 58 | 0.0 | 0.0 | 0.00 | 0.00 | 0.00 | 93 | 1013.2 |
| 20260506150304 | 74 | 83 | 1.7 | 1.7 | 0.00 | 0.00 | 0.00 | 93 | 1013.2 |
| 20260506145757 | 74 | 86 | 1.7 | 1.7 | 0.00 | 0.00 | 0.00 | 93 | 1013.0 |
| 20260506145253 | 75 | 58 | 0.0 | 0.0 | 0.00 | 0.00 | 0.00 | 92 | 1012.8 |
| 20260506144751 | 75 | 51 | 0.0 | 0.0 | 0.00 | 0.00 | 0.00 | 92 | 1013.1 |
| 20260506144248 | 75 | 17 | 0.9 | 0.9 | 0.00 | 0.00 | 0.00 | 91 | 1013.1 |
| 20260506143745 | 75 | 40 | 0.0 | 0.0 | 0.00 | 0.00 | 0.00 | 91 | 1013.0 |
| 20260506143242 | 75 | 42 | 0.0 | 0.9 | 0.00 | 0.00 | 0.00 | 91 | 1013.1 |
| 20260506142741 | 75 | 37 | 0.9 | 1.7 | 0.00 | 0.00 | 0.00 | 91 | 1012.9 |
| 20260506142238 | 75 | 42 | 0.0 | 0.0 | 0.00 | 0.00 | 0.00 | 91 | 1013.1 |
| 20260506141736 | 74 | 49 | 0.0 | 0.0 | 0.00 | 0.00 | 0.00 | 92 | 1012.8 |
| 20260506141235 | 74 | 76 | 0.0 | 0.9 | 0.00 | 0.00 | 0.00 | 92 | 1012.6 |
| 20260506140732 | 74 | 68 | 0.0 | 0.0 | 0.00 | 0.00 | 0.00 | 92 | 1012.6 |
| 20260506140229 | 74 | 72 | 0.0 | 0.9 | 0.00 | 0.00 | 0.00 | 92 | 1012.4 |
| 20260506135725 | 74 | 9 | 0.9 | 0.9 | 0.00 | 0.00 | 0.00 | 92 | 1012.4 |
| 20260506135222 | 74 | 50 | 0.0 | 0.0 | 0.00 | 0.00 | 0.00 | 92 | 1012.4 |
| 20260506134719 | 74 | 76 | 0.9 | 0.9 | 0.00 | 0.00 | 0.00 | 92 | 1011.9 |
| 20260506134215 | 74 | 33 | 0.0 | 0.9 | 0.00 | 0.00 | 0.00 | 92 | 1011.8 |
| 20260506133712 | 74 | 117 | 0.9 | 0.9 | 0.00 | 0.00 | 0.00 | 92 | 1012.0 |
| 20260506133208 | 74 | 82 | 0.9 | 0.9 | 0.00 | 0.00 | 0.00 | 92 | 1011.8 |
| 20260506132706 | 74 | 97 | 0.9 | 1.7 | 0.00 | 0.00 | 0.00 | 92 | 1011.6 |
| 20260506132203 | 74 | 97 | 0.0 | 0.9 | 0.00 | 0.00 | 0.00 | 93 | 1011.7 |
| 20260506131700 | 74 | 92 | 0.9 | 0.9 | 0.00 | 0.00 | 0.00 | 93 | 1011.8 |
| 20260506131156 | 74 | 125 | 1.7 | 1.7 | 0.00 | 0.00 | 0.00 | 93 | 1011.5 |
| 20260506130653 | 74 | 97 | 0.0 | 0.9 | 0.00 | 0.00 | 0.00 | 93 | 1011.6 |
| 20260506130151 | 74 | 119 | 0.9 | 1.7 | 0.00 | 0.00 | 0.00 | 93 | 1011.5 |
| 20260506125649 | 74 | 76 | 0.0 | 0.9 | 0.00 | 0.00 | 0.00 | 93 | 1011.1 |
| 20260506125146 | 74 | 108 | 1.7 | 1.7 | 0.00 | 0.00 | 0.00 | 93 | 1011.2 |
| 20260506124644 | 74 | 34 | 0.0 | 0.9 | 0.00 | 0.00 | 0.00 | 94 | 1011.6 |
| 20260506124142 | 74 | 132 | 0.9 | 0.9 | 0.00 | 0.00 | 0.00 | 94 | 1011.2 |
| 20260506123639 | 74 | 172 | 0.9 | 0.9 | 0.00 | 0.00 | 0.00 | 93 | 1011.2 |
| 20260506123138 | 74 | 99 | 0.9 | 1.7 | 0.00 | 0.00 | 0.00 | 93 | 1011.2 |
| 20260506122634 | 74 | 4 | 0.0 | 0.9 | 0.00 | 0.00 | 0.00 | 93 | 1011.5 |
| 20260506122132 | 74 | 299 | 0.0 | 0.9 | 0.00 | 0.00 | 0.00 | 92 | 1011.3 |
| 20260506121629 | 74 | 124 | 0.9 | 1.7 | 0.00 | 0.00 | 0.00 | 92 | 1011.2 |
| 20260506121125 | 74 | 68 | 0.0 | 0.0 | 0.00 | 0.00 | 0.00 | 92 | 1011.3 |
| 20260506120624 | 74 | 85 | 0.0 | 0.0 | 0.00 | 0.00 | 0.00 | 92 | 1011.3 |
| 20260506120121 | 74 | 45 | 0.0 | 0.0 | 0.00 | 0.00 | 0.00 | 92 | 1011.2 |
| 20260506115619 | 74 | 80 | 0.0 | 0.0 | 0.00 | 0.00 | 0.00 | 92 | 1011.2 |
| 20260506115117 | 74 | 338 | 0.9 | 0.9 | 0.00 | 0.00 | 0.00 | 91 | 1011.2 |
| 20260506114614 | 74 | 92 | 0.0 | 0.0 | 0.00 | 0.00 | 0.00 | 91 | 1011.2 |
| 20260506114112 | 74 | 63 | 0.0 | 0.0 | 0.00 | 0.00 | 0.00 | 91 | 1011.2 |
| 20260506113610 | 74 | 39 | 0.0 | 0.9 | 0.00 | 0.00 | 0.00 | 91 | 1011.0 |
| 20260506113107 | 74 | 45 | 0.9 | 0.9 | 0.00 | 0.00 | 0.00 | 91 | 1011.2 |
| 20260506112603 | 74 | 31 | 0.9 | 0.9 | 0.00 | 0.00 | 0.00 | 91 | 1011.2 |
| 20260506112101 | 74 | 42 | 0.0 | 0.0 | 0.00 | 0.00 | 0.00 | 91 | 1011.2 |
| 20260506111558 | 74 | 50 | 0.0 | 0.0 | 0.00 | 0.00 | 0.00 | 91 | 1011.2 |
| 20260506111055 | 74 | 31 | 0.0 | 0.0 | 0.00 | 0.00 | 0.00 | 91 | 1011.0 |
| 20260506110553 | 74 | 329 | 0.0 | 0.9 | 0.00 | 0.00 | 0.00 | 91 | 1011.1 |
| 20260506110050 | 74 | 92 | 0.0 | 0.9 | 0.00 | 0.00 | 0.00 | 91 | 1011.3 |
| 20260506105546 | 74 | 38 | 0.0 | 0.9 | 0.00 | 0.00 | 0.00 | 91 | 1011.3 |
| 20260506105044 | 74 | 15 | 0.0 | 0.9 | 0.00 | 0.00 | 0.00 | 91 | 1011.1 |
| 20260506104541 | 74 | 70 | 0.9 | 1.7 | 0.00 | 0.00 | 0.00 | 91 | 1011.3 |
| 20260506104039 | 74 | 291 | 0.0 | 0.9 | 0.00 | 0.00 | 0.00 | 91 | 1011.1 |
| 20260506103536 | 74 | 286 | 0.9 | 1.7 | 0.00 | 0.00 | 0.00 | 91 | 1010.9 |
| 20260506103032 | 74 | 110 | 0.0 | 0.9 | 0.00 | 0.00 | 0.00 | 91 | 1010.9 |
| 20260506102531 | 74 | 303 | 0.9 | 0.9 | 0.00 | 0.00 | 0.00 | 91 | 1011.1 |
| 20260506102028 | 74 | 46 | 0.0 | 0.9 | 0.00 | 0.00 | 0.00 | 91 | 1011.1 |
| 20260506101525 | 74 | 55 | 0.0 | 0.0 | 0.00 | 0.00 | 0.00 | 91 | 1011.1 |
| 20260506101022 | 74 | 242 | 0.9 | 0.9 | 0.00 | 0.00 | 0.00 | 90 | 1011.2 |
| 20260506100520 | 74 | 66 | 0.0 | 0.9 | 0.00 | 0.00 | 0.00 | 90 | 1011.1 |
| 20260506100018 | 74 | 39 | 0.0 | 0.9 | 0.00 | 0.00 | 0.00 | 90 | 1011.0 |
| 20260506095517 | 74 | 56 | 2.6 | 4.3 | 0.00 | 0.00 | 0.00 | 90 | 1010.9 |
| 20260506095012 | 74 | 188 | 0.9 | 2.6 | 0.00 | 0.00 | 0.00 | 91 | 1010.8 |
| 20260506094510 | 74 | 73 | 0.9 | 0.9 | 0.00 | 0.00 | 0.00 | 91 | 1010.8 |
| 20260506094008 | 74 | 73 | 0.0 | 0.0 | 0.00 | 0.00 | 0.00 | 91 | 1011.0 |
| 20260506093506 | 74 | 56 | 0.9 | 0.9 | 0.00 | 0.00 | 0.00 | 91 | 1011.0 |
| 20260506093004 | 74 | 349 | 1.7 | 1.7 | 0.00 | 0.00 | 0.00 | 91 | 1011.0 |
| 20260506092501 | 74 | 339 | 0.9 | 0.9 | 0.00 | 0.00 | 0.00 | 91 | 1010.9 |
| 20260506091957 | 74 | 61 | 1.7 | 1.7 | 0.00 | 0.00 | 0.00 | 90 | 1010.7 |
| 20260506091456 | 74 | 109 | 0.9 | 1.7 | 0.00 | 0.00 | 0.00 | 90 | 1010.7 |
| 20260506090952 | 74 | 33 | 0.9 | 0.9 | 0.00 | 0.00 | 0.00 | 90 | 1010.8 |
| 20260506090450 | 74 | 3 | 0.0 | 0.9 | 0.00 | 0.00 | 0.00 | 90 | 1010.7 |
| 20260506085946 | 74 | 211 | 0.9 | 1.7 | 0.00 | 0.00 | 0.00 | 90 | 1010.8 |
| 20260506085443 | 74 | 215 | 0.9 | 0.9 | 0.00 | 0.00 | 0.00 | 90 | 1010.8 |
| 20260506084940 | 74 | 50 | 0.0 | 0.9 | 0.00 | 0.00 | 0.00 | 90 | 1010.7 |
| 20260506084437 | 74 | 271 | 2.6 | 4.3 | 0.00 | 0.00 | 0.00 | 90 | 1010.8 |
| 20260506083933 | 74 | 269 | 0.9 | 0.9 | 0.00 | 0.00 | 0.00 | 90 | 1011.0 |
| 20260506083430 | 74 | 245 | 2.6 | 4.3 | 0.00 | 0.00 | 0.00 | 90 | 1010.9 |
| 20260506082927 | 74 | 131 | 0.0 | 0.9 | 0.00 | 0.00 | 0.00 | 90 | 1010.8 |
| 20260506082425 | 74 | 136 | 6.1 | 8.7 | 0.00 | 0.00 | 0.00 | 91 | 1010.9 |
| 20260506081920 | 74 | 139 | 0.0 | 0.9 | 0.00 | 0.00 | 0.00 | 91 | 1011.0 |
| 20260506081419 | 74 | 115 | 0.9 | 1.7 | 0.00 | 0.00 | 0.00 | 90 | 1010.9 |
| 20260506080915 | 74 | 110 | 0.0 | 0.9 | 0.00 | 0.00 | 0.00 | 90 | 1011.0 |
| 20260506080412 | 74 | 130 | 0.9 | 0.9 | 0.00 | 0.00 | 0.00 | 90 | 1011.1 |
| 20260506073356 | 75 | 198 | 1.7 | 4.3 | 0.00 | 0.00 | 0.00 | 90 | 1011.1 |
| 20260506072853 | 75 | 174 | 2.6 | 2.6 | 0.00 | 0.00 | 0.00 | 90 | 1011.0 |
| 20260506072351 | 75 | 236 | 0.9 | 0.9 | 0.00 | 0.00 | 0.00 | 90 | 1011.2 |
| 20260506071848 | 75 | 33 | 0.9 | 0.9 | 0.00 | 0.00 | 0.00 | 90 | 1011.3 |
| 20260506071346 | 75 | 74 | 1.7 | 2.6 | 0.00 | 0.00 | 0.00 | 90 | 1011.5 |
| 20260506070843 | 75 | 94 | 0.0 | 0.9 | 0.00 | 0.00 | 0.00 | 90 | 1011.3 |
| 20260506070340 | 75 | 128 | 1.7 | 1.7 | 0.00 | 0.00 | 0.00 | 90 | 1011.7 |
| 20260506062317 | 75 | 118 | 0.0 | 0.9 | 0.00 | 0.00 | 0.00 | 90 | 1011.6 |
| 20260506061813 | 75 | 141 | 0.9 | 1.7 | 0.00 | 0.00 | 0.00 | 90 | 1011.7 |
| 20260506061310 | 75 | 333 | 2.6 | 2.6 | 0.00 | 0.00 | 0.00 | 90 | 1011.8 |
| 20260506060808 | 75 | 103 | 0.9 | 0.9 | 0.00 | 0.00 | 0.00 | 89 | 1011.8 |
| 20260506060306 | 75 | 317 | 0.9 | 0.9 | 0.00 | 0.00 | 0.00 | 89 | 1011.7 |
| 20260506051237 | 76 | 259 | 0.9 | 1.7 | 0.00 | 0.00 | 0.00 | 89 | 1011.6 |
| 20260506050735 | 76 | 79 | 1.7 | 1.7 | 0.00 | 0.00 | 0.00 | 89 | 1011.8 |
| 20260506050232 | 76 | 263 | 1.7 | 2.6 | 0.00 | 0.00 | 0.00 | 88 | 1011.6 |
| 20260506044723 | 76 | 298 | 0.9 | 0.9 | 0.00 | 0.00 | 0.00 | 88 | 1011.2 |
| 20260506044220 | 76 | 78 | 1.7 | 1.7 | 0.00 | 0.00 | 0.00 | 88 | 1011.3 |
| 20260506043718 | 76 | 123 | 0.9 | 1.7 | 0.00 | 0.00 | 0.00 | 88 | 1011.0 |
| 20260506043215 | 76 | 139 | 0.9 | 4.3 | 0.00 | 0.00 | 0.00 | 88 | 1011.3 |
| 20260506042714 | 76 | 118 | 0.9 | 0.9 | 0.00 | 0.00 | 0.00 | 88 | 1011.3 |
| 20260506042212 | 76 | 21 | 0.9 | 0.9 | 0.00 | 0.00 | 0.00 | 87 | 1011.5 |
| 20260506041710 | 77 | 116 | 0.9 | 0.9 | 0.00 | 0.00 | 0.00 | 87 | 1011.3 |
| 20260506041207 | 77 | 119 | 0.9 | 1.7 | 0.00 | 0.00 | 0.00 | 87 | 1011.3 |
| 20260506040704 | 77 | 52 | 2.6 | 4.3 | 0.00 | 0.00 | 0.00 | 87 | 1011.2 |
| 20260506040201 | 77 | 335 | 0.0 | 0.9 | 0.00 | 0.00 | 0.00 | 87 | 1011.1 |
| 20260506035658 | 77 | 0 | 0.9 | 0.9 | 0.00 | 0.00 | 0.00 | 87 | 1011.0 |
| 20260506035155 | 77 | 61 | 0.9 | 1.7 | 0.00 | 0.00 | 0.00 | 87 | 1011.0 |
| 20260506034651 | 77 | 117 | 1.7 | 1.7 | 0.00 | 0.00 | 0.00 | 87 | 1010.9 |
| 20260506034149 | 77 | 143 | 1.7 | 1.7 | 0.00 | 0.00 | 0.00 | 86 | 1010.9 |
| 20260506033646 | 77 | 133 | 0.9 | 1.7 | 0.00 | 0.00 | 0.00 | 86 | 1010.9 |
| 20260506033143 | 77 | 71 | 1.7 | 1.7 | 0.00 | 0.00 | 0.00 | 86 | 1011.1 |
| 20260506032640 | 77 | 140 | 1.7 | 4.3 | 0.00 | 0.00 | 0.00 | 86 | 1010.7 |
| 20260506032137 | 77 | 155 | 1.7 | 4.3 | 0.00 | 0.00 | 0.00 | 86 | 1010.6 |
| 20260506031633 | 77 | 107 | 2.6 | 2.6 | 0.00 | 0.00 | 0.00 | 86 | 1010.6 |
| 20260506031130 | 77 | 133 | 1.7 | 1.7 | 0.00 | 0.00 | 0.00 | 85 | 1010.5 |
| 20260506030629 | 78 | 100 | 0.9 | 0.9 | 0.00 | 0.00 | 0.00 | 85 | 1010.6 |
| 20260506030126 | 78 | 339 | 1.7 | 2.6 | 0.00 | 0.00 | 0.00 | 84 | 1010.4 |
| 20260506025623 | 78 | 263 | 0.9 | 1.7 | 0.00 | 0.00 | 0.00 | 84 | 1010.5 |
| 20260506025119 | 78 | 61 | 1.7 | 2.6 | 0.00 | 0.00 | 0.00 | 84 | 1010.4 |
| 20260506024617 | 78 | 99 | 0.0 | 0.9 | 0.00 | 0.00 | 0.00 | 83 | 1010.2 |
| 20260506024112 | 78 | 135 | 3.5 | 4.3 | 0.00 | 0.00 | 0.00 | 83 | 1010.0 |
| 20260506023608 | 79 | 46 | 0.0 | 0.9 | 0.00 | 0.00 | 0.00 | 82 | 1009.9 |